Preview of NWS' New Version of Forecast
This preview is not operational and should not be used for support decisions.

Regional Weather Roundup (RWR)

Issued by National Weather Service (NWS)

                            
000
ASUS43 KDTX 220410
RWRMI 
MICHIGAN HOURLY REGIONAL WEATHER ROUNDUP
NATIONAL WEATHER SERVICE DETROIT/PONTIAC MI
1200 AM EDT MON APR 22 2019

NOTE: "FAIR" INDICATES FEW OR NO CLOUDS BELOW 12,000 FEET WITH NO
SIGNIFICANT WEATHER AND/OR OBSTRUCTION TO VISIBILITY.

MIZ047>049-052>055-059>063-066>070-074>076-081>083-220500-
SOUTHEAST LOWER MICHIGAN
  
CITY           SKY/WX    TMP DP  RH WIND       PRES   REMARKS
ADRIAN         FAIR      53  43  68 CALM      30.16S                  
ALMA           FAIR      56  38  49 SE3       30.12S                  
ANN ARBOR      FAIR      50  45  83 CALM      30.16R                  
BAD AXE        FAIR      48  40  71 SE5       30.14S                  
CARO           FAIR      52  39  60 CALM      30.14S                  
DETROIT CITY   FAIR      50  41  71 S3        30.17R                  
DETROIT        FAIR      50  40  68 SE5       30.17R                  
FLINT          FAIR      50  43  77 S6        30.15R                  
GROSSE ILE     FAIR      50  41  71 S6        30.16S                  
HILLSDALE      FAIR      54  41  63 S5        30.15S                  
HOWELL         FAIR      55  40  57 S5        30.15S                  

CITY           SKY/WX    TMP DP  RH WIND       PRES   REMARKS
JACKSON        MOCLDY    55  44  66 S8        30.15R                  
LAMBERTVILLE   FAIR      50  45  83 CALM      30.16R                  
LANSING        FAIR      56  43  61 S8        30.15R                  
LAPEER         FAIR      51  44  77 SE3       30.16S                  
MASON          FAIR      55  45  68 S3        30.15R                  
MONROE         FAIR      51  50  98 SE3       30.16S                  
MT. CLEMENS    FAIR      46  46 100 CALM      30.16R                  
PONTIAC        FAIR      51  42  71 SE5       30.16R                  
PORT HOPE        N/A     50  37  61 S6        30.13S                  
TRI CITIES     FAIR      55  42  61 S7        30.14R                  
MIDLAND        FAIR      57  36  45 SE5       30.11F                  
TROY           FAIR      53  36  52 CALM      30.19R                  
SAGINAW HB     FAIR      52  45  76 SE6       30.13S                  
$$
MIZ043>046-050>051-056>058-064>065-071>073-077>080-220500-
SOUTHWEST LOWER MICHIGAN
  
CITY           SKY/WX    TMP DP  RH WIND       PRES   REMARKS
BATTLE CREEK   FAIR      55  43  63 S7        30.14R                  
BENTON HARBOR  FAIR      59  37  44 SE7       30.10R                  
BIG RAPIDS     FAIR      53  39  60 CALM      30.09S                  
COLDWATER      FAIR      55  44  67 S5        30.15R                  
FREMONT        FAIR      60  28  29 SE6       30.08R                  
HOLLAND        FAIR      57  38  48 S9        30.10R                  
GRAND RAPIDS   FAIR      57  36  45 S9        30.11S                  
IONIA          FAIR      58  34  40 S9        30.11S                  
KALAMAZOO      FAIR      58  41  53 S6        30.13S                  
LUDINGTON      FAIR      58  28  31 SE3       30.04S                  
MARSHALL       FAIR      55  45  68 S3        30.14R                  
MOUNT PLEASANT FAIR      54  40  57 SE3       30.10S                  
MUSKEGON       FAIR      61  32  33 SE7       30.08R                  
SOUTH HAVEN    FAIR      62  35  36 S5        30.10S                  
$$
MIZ016>042-220500-
NORTHERN LOWER MICHIGAN
  
CITY           SKY/WX    TMP DP  RH WIND       PRES   REMARKS
ALPENA         MOCLDY    45  34  65 CALM      30.13S                  
BEAVER ISLAND  FAIR      44  26  48 E6        30.07F                  
BELLAIRE       MOCLDY    49  38  63 CALM      30.06F                  
CADILLAC       FAIR      52  37  55 SE3       30.08S                  
CHARLEVOIX     MOCLDY    52  29  41 SE7       30.08F                  
FRANKFORT      FAIR      56  28  33 CALM      30.04F                  
GAYLORD        FAIR      54  35  48 SE8       30.08S                  
GRAYLING       CLOUDY    52  40  64 CALM      30.09R                  
HARBOR SPRINGS MOCLDY    51  25  36 E9        30.07F                  
HOUGHTON LAKE  FAIR      57  34  41 SE6       30.10R                  
OSCODA         CLOUDY    49  34  56 CALM      30.14R                  
PELLSTON       CLOUDY    47  29  49 E3        30.09F                  
ROGERS CITY    CLOUDY    47  28  46 E6        30.13S                  
TRAVERSE CITY  FAIR      50  34  54 CALM      30.05F                  
$$
MIZ007>008-015-220500-
EASTERN UPPER MICHIGAN
  
CITY           SKY/WX    TMP DP  RH WIND       PRES   REMARKS
KINROSS        CLOUDY    46  28  49 E8        30.11F                  
MACKINAC ISLAN CLOUDY    40  29  66 E14G26    30.09F WCI  32          
NEWBERRY       CLOUDY    41  38  91 N7        30.11R                  
S. S. MARIE    CLOUDY    46  38  73 E3        30.11S                  
MUNISING         N/A     34  33  96 CALM      30.14S                  
$$
MIZ004>006-011>014-085-220500-
CENTRAL UPPER MICHIGAN
  
CITY           SKY/WX    TMP DP  RH WIND       PRES   REMARKS
MANISTIQUE     FAIR      43  37  79 N9        30.09R                  
ESCANABA       FAIR      42  34  73 NE12G17   30.08R                  
MENOMINEE      FAIR      44  35  70 NE15      30.05R                  
SAWYER-GWINN   LGT SNOW  38  35  91 NE12      30.10S WCI  30          
$$
MIZ001>003-009>011-084-220500-
WESTERN UPPER MICHIGAN
  
CITY           SKY/WX    TMP DP  RH WIND       PRES   REMARKS
IRON MOUNTAIN  LGT RAIN  43  33  68 NE6       30.06S                  
HOUGHTON       CLOUDY    43  39  86 E8        30.13R                  
COPPER HARBOR    N/A     40  39  97 CALM      30.15S                  
IRONWOOD       LGT RAIN  39  37  93 E7        30.10S FOG     WCI  34  
$$

ABBREVIATIONS USED IN REMARKS
   TC - TEMPERATURE IN CELSIUS
  WCI - WIND CHILL INDEX
   HX - HEAT INDEX
  VSB - VISIBILITY